Wind_Speed
2 0 3 5 6 7 7 7 6 4 4 3 2 3 4 4 5 5 3 5 1 3 5 6 6 8 8 10 11 12 8 1 5 8 7 7 7 7 9 8 8 8 5 11 19 21 22 23 24 25 26 25 24 24 24 24 23 22 23 25 27 26 25 25 25 25 25 26 27 26 26 27 27 27 26 25 24 24 24 25 24 23 22 22 22 22
3 1 6 7 8 7 5 4 3 3 3 1 1 2 4 3 6 5 2 4 1 2 4 1 1 6 6 8 10 10 7 5 6 8 8 9 8 7 9 9 8 6 5 12 17 19 22 23 25 26 24 23 23 23 23 23 23 22 24 27 29 29 27 27 27 27 26 27 27 27 27 27 27 26 26 27 27 27 27 26 26 26 25 24 23 23
3 4 8 6 4 1 3 4 5 3 3 1 0 1 4 4 4 5 2 4 1 2 3 2 3 5 6 7 10 10 7 6 6 7 8 9 10 8 8 8 8 8 7 10 12 17 23 25 26 24 22 22 22 23 23 23 24 25 26 29 30 29 28 28 28 28 28 27 26 27 27 27 27 26 25 26 27 28 28 28 28 28 28 27 26 24
3 5 5 2 2 2 2 3 5 3 2 0 2 1 5 3 1 3 3 4 1 2 2 2 3 4 5 7 10 10 7 9 9 11 10 8 9 8 7 8 8 9 9 8 9 14 21 23 23 22 20 20 22 25 25 25 26 27 28 30 30 29 29 29 30 30 29 28 27 27 27 27 27 27 26 26 25 26 27 28 28 28 29 30 30 29
6 6 1 2 3 2 2 3 3 2 4 3 4 5 5 3 4 5 3 4 3 2 1 3 3 3 5 7 7 8 7 10 9 11 12 9 8 8 8 9 8 8 8 9 9 10 16 19 18 19 20 21 24 26 26 26 27 28 28 30 31 30 30 31 32 32 31 30 29 30 30 30 28 28 27 27 26 27 28 29 29 29 29 30 31 32
7 4 0 1 3 4 1 4 3 3 2 4 4 7 7 4 4 3 3 4 4 3 1 3 3 3 5 6 5 5 7 9 8 10 11 8 8 8 8 8 8 8 8 9 9 10 14 16 17 19 22 24 26 25 26 26 28 28 29 30 31 31 31 31 32 32 31 31 30 30 30 29 28 27 26 26 28 29 29 30 31 31 29 28 29 30
3 2 3 2 2 5 3 3 4 5 3 3 4 4 4 4 1 1 3 3 1 2 2 2 2 2 2 5 4 4 7 8 7 9 9 7 8 7 7 6 7 7 7 8 9 11 14 15 18 20 23 26 25 25 26 27 28 30 30 31 32 31 30 32 32 32 32 31 29 28 27 26 25 25 26 27 29 29 30 31 32 32 31 29 29 29
2 3 5 4 4 4 2 3 4 6 5 3 3 4 4 3 1 2 1 1 3 3 3 1 4 3 0 2 1 2 8 8 7 8 7 6 7 7 7 7 7 6 6 7 7 9 13 15 18 19 22 24 24 25 27 28 29 30 31 32 32 31 31 32 32 32 32 30 29 28 27 25 25 25 27 29 29 29 30 31 31 32 32 30 29 28
1 0 2 2 3 2 3 4 4 6 2 5 3 3 2 1 2 3 3 2 1 2 4 3 3 2 1 3 3 2 7 7 5 6 6 6 6 7 7 7 7 6 6 6 6 8 13 15 16 18 21 23 24 26 27 28 30 31 32 32 32 32 32 32 32 32 31 30 28 27 26 27 27 27 27 27 27 28 29 30 30 30 30 29 28 27
1 2 3 3 1 3 5 4 4 5 2 2 3 3 2 3 2 2 3 2 2 2 4 5 3 3 1 4 4 2 4 5 4 4 4 4 5 6 6 6 6 5 5 6 8 11 14 16 17 19 21 23 24 26 28 30 31 32 32 32 31 31 31 31 31 32 31 29 28 28 29 29 28 27 27 27 27 28 29 29 30 30 30 30 29 27
3 1 2 2 1 3 2 2 4 4 3 0 3 2 3 4 3 3 2 3 3 2 6 6 3 4 1 4 4 2 4 6 5 5 3 4 5 5 5 5 5 5 4 4 7 11 14 17 19 21 22 23 25 27 29 31 32 31 30 29 29 30 30 30 31 31 30 28 27 29 28 26 25 27 28 29 30 30 30 29 29 30 30 29 29 28
5 2 1 1 1 1 1 1 1 0 1 2 2 3 4 4 3 4 4 3 2 4 6 3 3 4 1 3 2 1 4 7 6 6 6 5 5 5 4 4 4 4 4 4 5 9 13 17 19 20 22 22 24 26 28 29 29 28 28 28 29 30 29 29 30 30 28 26 26 26 24 24 27 31 32 31 31 30 30 30 31 31 30 29 28 28
4 0 2 3 1 2 2 3 4 4 4 3 2 3 3 4 4 2 3 1 2 5 3 0 1 2 0 1 1 2 6 7 6 6 7 6 6 5 4 3 2 3 4 5 5 7 11 13 15 18 19 20 21 23 25 28 27 27 28 29 29 28 28 29 29 27 26 25 24 23 24 28 32 32 30 28 28 28 28 30 31 32 31 30 29 28
5 4 3 3 2 1 2 1 4 3 3 2 1 2 2 1 2 4 4 2 3 4 1 2 2 1 1 1 3 4 5 5 6 6 6 6 6 5 4 3 3 4 4 5 5 6 9 12 14 15 16 17 19 22 25 27 27 27 29 27 26 27 28 28 26 25 25 24 22 24 28 32 31 28 26 26 27 27 27 29 30 30 29 28 28 27
2 4 3 1 1 2 1 1 2 1 1 2 1 4 3 3 1 4 4 3 4 3 2 3 1 1 3 1 2 3 4 4 5 5 5 5 5 4 4 3 4 5 5 5 6 7 10 12 13 14 16 18 20 23 26 27 27 28 27 24 25 27 27 26 25 25 24 22 25 30 32 30 28 27 27 27 26 26 27 29 29 27 27 28 27 25
1 4 6 2 1 1 1 1 2 2 1 2 2 3 1 3 3 2 3 4 3 2 3 1 1 0 1 2 2 3 4 4 4 4 5 5 4 4 4 5 5 5 5 5 5 6 9 12 13 15 17 19 22 24 25 26 27 25 22 23 26 27 26 26 26 24 23 27 31 32 28 27 27 27 27 26 26 27 29 29 27 27 28 29 28 28
1 5 6 3 2 1 1 2 0 1 1 0 1 1 4 4 4 1 2 1 2 0 3 2 3 1 1 2 0 2 4 4 4 4 5 5 5 6 6 6 6 5 4 5 5 6 8 12 14 17 19 21 22 22 22 24 25 21 21 25 27 27 27 27 23 23 28 32 31 27 25 26 26 25 27 30 31 31 29 29 28 26 27 30 32 34
1 5 7 2 2 3 1 1 3 1 2 1 2 3 3 1 3 2 1 3 3 2 4 1 4 3 3 3 2 3 4 4 4 4 4 4 6 7 6 5 5 4 3 4 5 6 10 13 15 17 18 18 19 19 21 25 24 20 23 28 26 27 28 24 23 28 33 31 27 26 25 24 23 26 32 35 33 29 27 29 28 26 31 38 38 36
0 4 7 1 2 4 2 1 4 3 1 2 3 2 1 0 1 1 0 1 1 2 3 3 0 3 4 4 5 5 4 4 4 4 5 5 7 6 5 5 4 3 3 3 4 5 10 13 14 15 15 17 19 19 23 27 23 20 25 27 24 26 26 23 27 33 32 28 27 26 23 22 25 33 39 35 29 26 28 28 25 27 35 40 37 33
0 1 5 3 3 4 3 1 2 3 3 2 1 2 1 3 4 1 1 2 1 2 2 3 2 2 3 3 7 6 4 5 4 5 5 6 7 6 5 4 4 3 2 2 3 5 9 11 12 13 16 19 20 21 25 27 22 21 25 25 24 26 25 25 30 33 29 27 27 24 21 24 32 41 41 32 27 27 27 25 25 29 34 34 32 31
1 1 4 5 4 4 3 1 2 2 3 2 1 2 2 1 1 1 1 1 1 2 2 2 4 3 2 2 7 7 5 5 6 5 5 5 6 6 3 3 3 3 2 2 3 6 8 10 12 15 19 20 20 23 26 25 21 22 24 23 24 26 26 27 30 29 28 27 25 22 23 30 40 44 37 28 27 26 24 25 27 29 31 32 32 31
1 1 3 5 5 4 5 3 2 3 3 3 2 2 2 1 2 1 3 2 1 2 3 2 4 4 2 3 5 7 6 6 7 5 4 5 6 6 2 3 3 3 3 2 4 7 9 12 14 16 19 21 21 24 24 22 21 22 23 22 24 25 26 28 29 27 27 27 24 22 27 37 43 39 29 26 27 25 24 27 29 30 32 33 32 30
1 1 1 4 5 6 8 5 0 2 3 4 1 1 2 0 2 2 4 3 2 1 2 2 2 2 1 2 4 6 6 6 7 5 3 4 6 5 2 3 4 3 4 4 6 9 11 12 15 17 20 21 22 23 22 21 21 21 20 22 23 23 24 27 27 26 27 26 22 24 33 42 40 31 26 26 26 26 27 28 29 31 32 32 31 29
0 1 1 5 5 5 7 4 2 2 3 3 1 1 1 1 1 4 4 2 1 3 1 1 2 1 1 3 4 5 6 5 5 4 4 3 5 4 2 3 4 3 5 5 7 10 12 13 16 18 20 20 20 20 19 19 20 18 18 20 21 21 25 28 27 27 28 25 22 29 39 41 35 29 28 28 27 28 29 29 30 31 31 30 30 30
2 1 1 4 6 6 6 6 5 5 3 1 3 2 1 2 2 2 1 1 1 3 2 2 3 1 4 3 4 4 4 4 3 4 3 4 5 4 2 2 3 3 5 6 7 10 12 14 16 16 17 17 17 17 17 18 19 18 19 20 21 22 27 29 27 28 28 24 24 34 40 35 30 29 30 29 29 29 29 30 31 31 30 30 31 30
1 1 1 2 4 5 6 5 4 4 3 2 4 4 3 3 3 2 1 1 1 2 1 1 2 1 5 4 4 3 3 3 2 3 3 4 5 4 2 2 4 4 7 7 7 8 9 12 13 13 14 15 15 15 16 18 19 20 21 22 22 25 30 30 27 28 27 24 28 35 34 29 27 28 28 28 28 29 30 31 31 31 30 30 31 32
2 1 1 3 5 6 6 7 5 4 5 5 7 8 6 5 3 1 1 1 2 1 2 1 1 1 3 1 4 2 2 3 4 5 5 5 6 3 1 4 5 5 6 6 5 5 7 10 11 12 13 15 15 16 17 19 21 22 23 22 23 26 30 29 27 27 26 25 28 31 28 27 28 28 28 29 29 29 30 30 31 31 30 31 32 34
3 2 3 2 6 8 7 9 8 6 4 4 6 8 7 6 3 2 1 2 2 1 2 1 3 1 2 1 3 2 2 4 5 6 7 8 7 3 2 4 5 4 5 6 5 5 8 9 10 12 14 15 16 18 19 20 22 23 23 22 24 27 29 28 26 25 24 24 26 28 27 28 29 28 29 30 30 30 31 31 31 31 32 33 34 34
3 2 3 1 6 10 8 7 7 4 2 2 4 5 7 7 6 5 3 3 4 2 2 1 3 3 1 2 2 2 1 3 5 6 8 8 5 3 3 4 4 4 6 7 5 6 8 9 11 14 16 17 18 19 20 21 23 24 24 23 24 27 27 26 25 24 24 24 26 28 29 29 29 30 31 31 31 31 32 32 32 33 35 36 36 36
3 2 3 0 5 11 9 5 4 3 2 3 5 6 5 5 6 5 2 3 4 2 1 2 5 4 0 1 2 2 2 2 5 7 9 7 4 3 3 3 3 5 7 7 6 6 8 10 12 15 17 18 20 20 21 23 25 25 25 24 25 26 26 26 25 24 25 27 29 30 30 31 31 33 33 33 33 33 33 34 35 37 38 38 38 38
2 2 2 3 3 9 7 5 5 3 3 3 6 8 8 6 6 6 4 4 5 3 3 4 6 4 1 2 1 1 2 5 7 10 10 5 2 4 4 3 4 6 7 8 7 6 9 12 13 16 17 19 21 21 22 24 25 25 24 25 25 26 26 25 25 26 27 30 32 32 32 34 35 36 36 36 36 36 36 38 38 39 39 39 39 40
3 2 3 5 4 7 5 6 9 4 4 4 7 10 9 7 5 4 3 3 2 4 7 7 5 3 2 2 4 5 6 8 10 11 9 4 2 5 5 3 4 5 8 9 7 6 9 12 14 16 18 20 21 21 22 24 24 24 24 25 26 26 26 26 26 27 29 32 34 34 35 37 37 38 38 38 38 38 38 39 39 39 39 40 41 41
2 2 2 3 3 6 5 8 10 4 4 3 5 7 6 3 4 5 5 3 2 2 3 4 3 3 4 6 7 8 9 10 11 10 7 4 4 5 4 3 4 6 8 9 8 6 9 12 14 16 19 21 21 21 22 22 22 23 25 26 26 26 26 27 27 29 31 33 34 35 36 37 37 39 40 39 39 39 39 39 39 38 38 40 41 40
3 2 1 1 1 5 7 9 7 4 3 3 2 3 5 2 4 9 8 4 3 1 0 2 3 5 6 6 8 10 9 9 11 9 3 2 3 4 4 4 5 6 8 8 7 8 10 13 15 17 20 20 20 21 22 21 22 25 26 27 26 26 27 28 28 29 31 33 35 36 37 38 38 39 40 40 40 40 40 39 39 39 38 39 39 40
3 3 2 0 1 4 5 7 6 3 2 4 2 4 6 1 4 10 7 2 2 4 3 3 5 7 7 7 8 9 8 9 10 6 1 2 1 3 4 5 5 6 7 7 7 9 12 14 16 20 21 20 21 22 22 22 23 26 27 26 26 26 26 27 29 30 32 35 36 37 38 39 40 40 41 41 41 41 40 40 40 40 40 40 39 39
1 2 2 1 1 2 3 5 4 3 2 1 1 6 6 3 6 10 7 1 2 4 4 4 7 8 9 9 8 7 8 10 8 3 2 2 2 3 4 5 5 6 8 9 11 12 14 15 18 21 21 20 21 21 20 22 24 25 26 25 25 26 27 28 29 31 34 36 38 39 39 40 41 42 42 42 41 41 41 41 41 41 41 41 40 40
3 2 2 2 0 1 1 3 4 3 3 3 3 5 5 4 5 7 5 2 2 4 4 6 9 9 10 10 7 6 8 9 7 1 2 2 3 5 6 5 5 8 10 13 15 15 14 16 19 22 21 20 21 20 20 23 25 25 26 26 26 27 29 29 31 33 36 37 38 40 40 40 40 41 42 41 41 41 41 41 41 42 41 41 41 41
3 1 1 1 1 2 1 3 3 4 3 1 2 6 7 6 5 4 4 2 2 3 4 6 9 10 11 10 7 6 8 9 8 5 2 3 4 5 6 6 6 10 13 15 16 15 14 17 21 22 21 20 20 21 22 25 26 26 27 27 28 30 30 30 32 35 37 38 39 39 40 39 39 39 40 40 39 40 41 41 41 41 40 40 41 42
5 2 3 2 2 2 3 2 2 2 3 2 4 8 9 7 4 2 2 2 2 4 4 6 8 10 11 11 8 6 6 7 8 7 4 5 5 5 6 6 9 12 15 16 16 15 14 18 21 21 21 21 22 23 25 26 26 26 26 27 28 29 30 31 34 36 37 38 39 39 38 38 38 38 38 38 39 39 40 41 41 41 40 39 40 41
5 4 4 4 3 2 2 2 3 2 2 2 5 9 10 7 1 2 5 4 4 6 5 6 9 10 10 10 7 4 4 5 8 7 5 6 6 6 6 8 10 13 14 15 15 14 15 19 21 22 23 23 23 25 26 25 25 24 25 26 27 27 29 32 35 36 37 38 39 39 38 38 38 37 37 37 38 39 39 39 40 40 40 40 40 40
3 3 2 2 2 2 2 2 3 3 2 2 7 10 10 6 1 3 7 5 6 9 7 6 9 10 10 9 5 3 5 7 10 9 7 8 8 7 7 9 10 12 13 14 15 15 16 20 21 22 23 23 23 25 25 24 24 24 25 25 26 27 29 33 35 36 37 38 38 39 39 38 37 37 36 36 36 37 38 39 39 39 39 40 40 40
2 2 2 2 2 2 1 1 4 4 3 2 8 8 5 4 4 4 5 5 8 10 9 8 10 10 9 8 6 5 7 9 9 7 6 8 8 7 8 10 11 13 14 15 16 16 18 20 21 22 23 23 24 24 24 23 24 24 25 25 26 28 31 33 35 36 37 38 39 39 39 39 38 37 36 36 35 36 38 39 38 38 39 38 39 40
1 1 2 2 1 1 2 2 3 4 2 3 8 6 2 3 4 5 6 7 9 10 9 8 9 9 7 6 7 8 9 9 7 5 5 8 8 7 9 10 12 14 15 16 17 17 18 19 20 22 23 23 24 24 23 23 24 24 25 25 27 30 32 33 35 36 37 38 39 39 39 38 38 37 36 35 34 35 38 38 38 38 38 37 38 39
1 2 1 2 1 1 2 1 2 3 2 3 4 3 1 2 4 5 7 8 8 8 7 6 7 7 5 5 7 8 8 8 7 5 6 7 7 8 10 11 13 15 15 16 17 17 17 18 19 21 23 23 24 24 24 24 24 25 25 26 29 31 32 34 35 36 37 38 38 39 38 37 37 37 35 34 35 35 37 37 37 38 37 37 37 34
2 2 2 2 1 1 4 5 4 3 3 1 1 3 2 2 4 5 6 7 7 5 4 5 6 6 4 5 7 7 8 7 6 6 6 7 7 8 10 12 14 15 15 16 17 17 17 18 19 21 23 24 24 24 24 24 24 25 27 28 30 30 31 34 36 37 38 38 38 38 38 37 37 36 34 34 34 34 35 37 37 36 36 37 35 31
3 2 2 1 3 4 5 5 4 4 4 3 2 3 3 3 4 4 5 6 5 4 4 5 5 4 4 5 6 7 7 6 5 6 6 7 8 9 10 12 14 15 16 17 18 18 18 18 19 21 23 25 25 24 24 24 24 25 27 29 29 29 30 33 36 37 37 37 37 37 36 36 36 35 35 35 35 34 33 34 35 35 34 34 32 30
3 1 1 1 4 4 2 4 4 3 6 7 4 2 3 4 3 3 4 4 3 4 5 4 4 5 5 4 5 7 7 5 5 6 6 6 8 10 11 13 14 16 17 17 18 18 18 18 19 21 23 24 25 24 24 24 24 25 26 28 29 29 31 33 34 36 37 37 36 35 34 34 34 34 35 36 36 35 34 34 34 33 32 31 31 29
2 1 1 1 2 3 5 9 7 4 7 7 2 1 3 5 4 3 4 4 5 6 5 4 5 6 5 4 5 7 6 5 5 5 6 7 9 10 12 13 15 17 18 18 18 18 18 18 19 21 22 24 25 24 24 24 25 26 27 28 29 30 31 33 33 34 35 35 33 32 32 32 32 33 35 37 36 35 35 34 34 33 31 30 28 27
1 1 1 2 4 5 7 9 8 7 7 4 2 2 5 5 4 4 4 5 6 6 4 4 7 7 7 7 6 5 5 5 5 6 7 8 9 11 12 14 16 17 18 18 18 18 18 19 20 21 22 24 24 24 24 25 26 27 27 28 30 30 31 32 33 33 34 33 32 31 31 31 32 33 34 36 36 35 33 31 30 30 32 30 28 28
0 1 1 2 3 5 7 8 7 7 7 4 4 8 7 3 2 4 5 6 6 4 4 5 8 8 8 8 6 4 4 5 6 8 9 9 10 12 13 15 17 18 19 18 18 19 19 20 21 22 23 25 25 25 25 26 27 28 28 28 29 29 30 31 32 32 32 32 32 31 31 31 32 33 33 34 35 36 35 33 28 25 26 28 29 31
2 3 2 1 4 7 10 8 3 3 7 8 9 9 5 2 3 5 6 6 6 4 4 6 7 7 7 7 6 5 5 5 7 9 10 11 13 14 14 15 17 18 19 19 18 19 20 21 22 23 24 26 26 26 27 28 28 28 28 28 28 28 29 30 30 30 31 32 32 31 30 29 31 33 33 33 34 34 35 37 35 29 24 23 28 32
Wind_Direction
82 64 257 232 235 239 230 210 210 218 184 185 190 201 240 246 273 266 254 290 218 161 256 233 240 271 294 326 336 327 325 62 105 96 104 108 103 101 97 94 90 90 87 90 94 99 104 105 104 103 99 90 77 67 65 64 62 58 52 44 38 32 27 23 17 13 9 3 356 348 341 336 331 327 324 322 320 319 321 323 321 318 317 314 311 309
59 219 247 235 236 247 248 205 154 116 129 117 197 252 290 242 262 269 219 298 306 161 269 220 273 297 331 345 339 342 4 49 89 110 110 103 98 91 91 89 86 87 79 79 79 85 96 99 99 97 89 79 70 66 64 62 59 55 47 40 34 30 28 24 17 12 7 1 356 350 344 338 332 325 319 317 315 313 312 313 314 315 313 308 306 306
6 245 258 252 222 159 58 97 106 97 112 73 118 269 294 259 279 296 289 312 349 165 265 28 19 333 354 359 4 11 27 45 53 84 93 95 93 81 83 85 82 77 66 65 68 80 90 93 93 88 80 75 69 64 61 58 54 48 41 34 30 27 24 21 15 9 3 355 349 344 340 337 334 329 322 317 313 311 309 310 311 312 310 307 303 302
310 252 264 267 158 114 46 59 71 40 27 224 220 254 275 270 299 284 299 314 280 222 257 45 22 350 357 9 26 19 33 62 55 63 62 64 80 80 79 77 78 80 74 71 73 82 89 89 88 80 73 73 67 60 56 53 47 40 35 29 25 24 19 15 10 5 0 354 348 344 339 336 334 330 327 324 320 318 316 315 315 314 312 310 304 300
258 251 250 57 70 105 257 328 34 350 319 287 220 221 246 253 229 228 282 314 313 321 237 98 38 9 14 22 29 7 30 54 49 62 59 48 65 76 74 67 69 77 82 88 86 84 86 85 80 72 66 65 63 57 51 46 40 34 30 24 21 20 15 10 7 3 359 356 352 348 344 342 339 335 333 330 326 324 322 319 319 318 316 313 308 302
267 267 268 47 36 62 115 286 273 204 274 307 242 219 223 222 226 245 327 342 5 346 279 90 36 339 13 34 23 355 37 47 35 58 60 49 56 63 66 61 61 66 73 87 89 85 82 78 71 65 61 60 59 53 45 39 34 30 25 21 18 16 11 7 4 2 359 356 353 349 346 344 340 336 335 332 327 324 322 321 321 321 320 317 313 308
273 339 45 99 94 67 62 281 248 169 128 308 259 200 179 154 170 311 357 360 355 265 259 97 126 243 352 35 14 9 60 57 43 54 53 49 54 55 59 57 57 67 74 79 78 78 75 70 65 61 58 58 54 45 38 33 29 25 21 17 14 12 8 5 2 359 357 354 351 348 345 342 338 334 331 331 328 324 323 323 323 324 324 323 320 316
231 349 22 54 77 66 24 282 237 145 114 268 237 124 118 123 257 256 151 220 236 263 300 58 145 188 181 87 54 67 79 66 52 52 45 45 52 54 55 52 57 69 83 84 74 70 69 65 62 59 59 56 47 39 33 29 25 21 17 12 10 8 5 2 358 356 356 355 351 349 347 345 342 335 330 329 327 325 325 324 324 325 325 326 325 321
214 303 346 55 58 14 258 241 189 139 129 259 212 115 105 151 220 187 160 214 275 358 311 279 149 152 194 159 174 100 90 87 78 67 54 48 49 52 53 53 62 66 72 80 81 73 67 61 57 60 60 51 41 35 30 25 21 16 12 8 5 4 0 357 355 354 357 358 355 353 350 344 339 335 332 331 331 331 331 330 329 329 328 328 327 324
281 226 212 143 152 254 246 240 178 156 240 251 140 101 50 63 68 93 119 142 48 21 261 250 174 140 187 178 171 135 116 134 134 103 70 51 47 50 57 61 65 63 58 67 81 80 68 57 55 59 55 44 36 30 25 21 16 11 8 5 2 360 357 355 355 354 356 357 353 349 345 341 339 340 341 340 339 337 336 333 332 332 330 329 327 324
311 282 191 129 195 222 227 242 180 174 244 264 95 30 12 32 41 47 69 94 62 287 255 250 189 125 145 189 177 188 165 158 151 127 95 60 54 52 56 63 63 62 54 50 69 75 62 51 52 53 46 37 30 25 21 16 11 8 5 2 358 356 356 356 354 353 352 351 347 344 344 345 346 346 344 340 336 333 332 330 328 327 324 323 323 323
343 30 215 287 260 148 60 340 217 171 344 69 68 28 4 344 15 25 354 50 95 257 267 256 174 111 116 196 196 230 152 142 143 132 119 97 74 66 58 60 60 56 51 46 55 60 51 46 47 46 39 32 27 22 18 12 7 5 2 358 355 355 356 354 350 349 349 347 345 347 350 349 345 341 338 335 332 331 331 329 327 326 323 320 319 319
336 260 285 319 324 120 72 351 336 358 37 56 40 44 23 338 360 357 311 323 206 243 266 321 117 94 136 203 99 108 125 131 138 132 128 115 94 84 70 62 48 41 51 52 58 54 46 47 49 43 35 29 26 21 14 9 6 3 359 356 355 355 353 348 346 347 347 348 351 354 351 343 338 336 336 335 333 333 332 329 328 327 325 323 320 319
330 307 327 347 327 72 95 19 321 327 21 16 347 97 99 25 7 304 276 279 273 259 270 360 16 77 175 28 62 94 105 123 131 130 130 119 109 103 82 67 31 32 58 58 58 51 42 51 54 44 35 29 24 18 11 7 5 360 355 354 355 351 347 345 346 347 349 353 356 349 341 338 338 339 339 338 335 334 333 331 328 326 326 325 324 325
338 310 306 312 317 19 51 205 201 197 340 296 180 123 140 163 177 265 243 233 267 280 307 320 348 193 173 84 41 85 94 106 116 122 118 107 109 104 73 51 24 27 51 60 60 45 38 54 57 42 34 29 21 14 9 6 1 355 353 354 352 346 344 346 348 350 353 355 347 340 338 341 344 344 342 340 338 338 337 336 332 329 329 329 327 329
171 262 264 291 360 90 305 248 136 95 353 281 142 98 172 185 166 231 209 190 220 300 313 273 133 314 138 95 29 68 86 88 95 106 99 84 75 68 45 24 19 25 40 60 62 36 36 56 54 40 33 26 17 10 7 3 356 351 352 352 348 345 346 348 350 353 353 346 340 339 343 347 348 347 346 345 342 339 337 336 333 331 332 331 329 327
5 272 276 324 353 148 190 238 332 17 311 96 112 217 234 185 134 167 271 343 76 321 280 158 123 54 93 125 46 92 90 81 85 81 77 75 55 44 32 16 16 25 41 62 55 27 41 55 47 36 30 21 12 8 4 358 352 351 354 351 348 348 348 350 353 351 345 341 340 343 346 349 350 351 349 343 337 334 332 331 331 329 327 327 325 322
241 275 288 327 300 274 190 208 312 315 155 140 232 242 244 152 101 105 291 345 24 253 263 139 143 183 172 161 169 134 107 85 80 68 55 56 47 35 20 8 12 27 49 56 39 31 48 51 40 32 25 14 8 5 359 355 352 353 354 351 350 348 347 349 350 345 341 341 341 342 345 350 352 349 343 337 332 331 330 330 330 327 324 326 327 323
180 281 298 332 240 286 360 51 325 325 113 160 222 243 72 172 272 11 91 274 308 261 280 323 211 197 202 180 161 155 133 100 73 53 40 34 36 24 3 360 3 17 52 44 19 35 51 47 36 27 16 7 5 2 357 354 353 353 352 351 350 348 348 347 342 340 341 342 342 343 346 349 347 342 339 336 332 330 330 329 329 327 327 329 330 327
54 267 291 291 240 293 352 23 294 313 342 13 332 326 40 165 200 221 171 183 223 256 270 318 323 229 239 184 150 146 126 98 69 39 36 35 24 1 350 1 352 353 44 35 9 41 53 40 27 20 10 4 3 360 355 353 353 352 350 350 350 349 348 343 340 341 341 341 342 344 345 342 338 338 339 338 335 331 329 329 327 325 326 327 325 323
357 200 262 291 308 315 323 261 198 236 305 349 357 319 303 270 274 288 269 135 139 214 209 294 291 265 308 58 125 123 105 93 72 41 34 37 7 340 349 6 344 344 355 4 33 49 46 28 17 12 5 1 359 356 354 352 351 349 348 350 350 348 346 342 341 341 339 340 343 342 340 337 336 338 339 338 334 330 327 327 324 323 323 322 321 320
335 195 247 299 322 299 274 261 209 212 206 166 190 219 197 266 351 328 295 318 78 185 181 191 275 270 332 59 111 110 96 87 73 51 30 23 351 327 357 359 329 338 336 358 62 47 29 18 10 5 1 359 357 354 352 351 348 346 346 348 347 346 345 342 339 337 336 339 341 337 335 335 336 338 337 332 332 329 326 324 322 322 322 321 319 318
180 121 286 284 276 272 283 302 34 184 144 131 154 120 125 83 92 168 252 286 324 266 174 156 259 270 333 75 103 103 95 88 75 50 15 4 337 318 349 339 312 339 360 37 61 35 19 13 5 1 358 357 354 351 349 347 343 342 344 344 343 342 343 341 338 336 336 337 334 331 334 335 337 338 333 329 329 327 324 322 321 323 322 319 318 316
19 62 336 286 282 296 308 334 37 50 76 88 348 34 83 315 100 164 206 211 241 256 218 232 256 202 132 83 88 98 97 99 87 44 360 336 327 311 292 306 304 353 24 48 46 20 10 8 4 1 357 353 350 346 344 343 340 339 341 342 342 342 342 341 338 335 336 334 329 330 334 336 337 337 334 330 327 325 324 322 321 321 319 316 315 314
310 322 360 329 325 334 343 353 352 350 23 31 309 360 74 328 25 145 205 84 225 245 200 228 264 161 128 100 71 75 73 78 82 40 352 323 327 307 257 288 310 13 38 40 25 9 5 5 360 356 353 348 343 341 341 342 340 340 341 341 344 343 342 341 337 335 335 331 327 331 334 335 335 333 332 329 325 323 323 321 320 319 316 315 314 313
267 256 45 6 314 312 321 319 319 323 321 304 309 330 357 332 314 240 217 90 215 262 111 185 262 108 131 109 63 66 52 29 1 354 331 312 319 292 239 336 346 30 40 23 8 0 360 358 352 349 349 343 339 340 343 343 342 343 343 343 344 342 340 339 335 334 334 329 328 332 334 333 331 329 327 325 324 323 321 319 319 317 315 314 313 312
85 295 225 192 228 253 272 277 293 329 307 301 318 322 331 328 304 185 125 194 226 290 349 333 5 105 166 123 39 43 34 354 321 333 332 320 327 313 307 2 16 48 36 1 348 352 355 354 349 346 344 340 340 344 345 346 346 345 343 342 341 339 338 337 333 332 332 328 329 332 331 330 329 326 324 323 322 321 320 318 318 316 315 314 312 311
67 321 286 228 246 257 267 279 298 321 300 306 334 325 327 334 341 68 47 326 351 355 313 360 35 3 230 19 20 356 340 334 327 340 334 324 334 344 344 6 31 50 13 339 339 1 360 351 345 344 342 341 343 345 347 348 347 345 342 339 338 337 336 335 332 330 330 328 328 329 328 327 327 325 323 322 321 320 320 318 316 315 314 313 312 311
101 268 277 305 280 283 289 290 298 313 318 27 14 340 339 357 24 53 36 1 22 340 277 3 8 318 294 19 350 270 242 322 334 338 327 324 338 348 351 19 34 13 345 335 350 12 360 344 343 344 343 343 344 344 347 348 347 345 342 338 337 335 334 333 331 329 328 327 327 328 327 325 325 325 324 322 321 321 320 318 316 315 315 314 313 312
120 263 281 46 298 298 305 309 317 335 30 47 23 2 1 16 39 48 20 350 9 323 257 5 334 308 180 163 272 239 207 327 342 333 325 331 345 340 357 32 17 348 338 339 360 14 352 341 343 342 341 342 343 344 348 349 347 344 340 338 336 333 332 332 329 327 328 327 327 327 326 325 324 324 324 323 322 321 320 319 317 317 316 315 315 315
55 303 320 54 333 302 306 327 340 4 108 85 29 11 8 16 27 27 8 1 8 329 308 343 330 308 177 170 299 358 358 347 341 328 326 336 345 342 6 24 352 345 345 344 357 1 344 339 340 340 340 342 343 347 350 347 344 341 338 336 334 331 330 330 328 327 327 326 327 326 326 326 326 325 325 324 323 322 321 320 319 319 318 317 317 317
32 336 347 39 354 292 300 339 338 2 98 72 23 5 357 5 15 353 327 341 343 306 316 331 326 310 332 6 3 358 348 340 332 325 326 336 348 352 5 360 339 349 351 345 346 347 340 338 339 339 341 343 344 348 347 343 340 338 335 333 331 329 329 328 327 327 326 326 327 327 327 327 327 326 325 325 324 324 323 321 320 320 318 318 318 318
62 16 335 23 334 279 300 330 325 352 51 2 353 349 328 335 11 341 315 311 296 289 317 310 298 325 358 3 348 335 335 335 328 325 328 336 348 355 357 348 350 359 353 342 337 340 337 336 338 339 340 342 344 343 341 338 336 334 332 331 329 328 328 327 327 326 326 327 327 327 328 328 327 326 325 325 325 324 324 322 320 320 319 318 319 318
54 54 303 328 301 282 305 328 335 22 24 280 247 354 314 283 23 353 326 306 319 354 314 281 316 349 359 355 333 320 325 328 319 318 346 23 351 342 346 2 8 359 346 334 331 336 335 335 338 339 340 341 340 338 337 335 333 332 330 329 328 328 327 326 326 326 327 327 328 329 329 329 327 326 325 326 326 325 324 323 321 320 320 319 318 317
20 10 311 213 180 274 314 359 3 355 276 230 191 11 339 303 15 344 314 262 17 12 3 347 345 342 333 329 320 310 310 314 309 308 52 81 18 339 347 5 11 354 338 333 334 337 337 339 341 340 340 340 337 336 335 333 332 331 329 329 328 327 327 327 326 327 328 329 330 330 331 330 328 327 326 326 326 326 325 324 322 321 321 320 318 316
43 352 324 194 203 309 1 15 343 286 257 255 358 2 359 2 356 344 327 245 63 23 14 350 335 331 325 319 316 311 306 307 304 291 125 94 63 43 13 5 5 349 339 340 340 338 339 342 342 339 336 334 333 334 334 332 331 330 328 328 328 327 328 329 328 330 331 330 331 331 331 331 329 327 326 327 326 326 325 324 322 322 322 320 318 317
122 112 18 356 341 45 332 291 294 310 343 23 9 352 350 334 328 333 321 291 62 42 19 347 330 330 329 318 314 315 309 306 305 292 125 88 66 58 32 14 1 345 343 345 340 334 334 338 339 336 333 331 332 333 333 333 332 331 329 330 331 331 331 332 331 332 332 331 331 331 330 330 328 326 326 326 326 325 324 323 322 322 322 320 318 317
73 114 117 355 332 62 8 305 330 337 313 301 339 326 322 308 300 299 281 275 33 24 2 345 329 328 328 320 315 323 319 314 316 329 45 61 53 49 28 6 356 348 346 344 336 330 332 336 335 333 331 332 333 335 337 335 334 333 332 332 333 333 332 332 332 332 331 329 329 329 329 329 327 326 325 325 324 323 322 322 322 321 322 320 317 316
29 37 107 85 349 33 35 321 302 274 251 252 312 314 316 308 300 308 285 282 353 347 338 339 328 325 324 317 316 329 326 314 316 331 27 43 28 34 18 353 352 349 343 338 332 328 331 333 333 333 335 337 336 336 338 337 335 334 331 331 332 331 331 331 330 329 328 327 327 327 328 328 327 326 325 324 323 323 322 322 322 321 321 320 318 316
13 3 42 43 352 5 19 307 271 235 226 294 312 312 315 308 304 10 325 311 346 346 340 335 326 322 318 311 309 323 321 309 313 330 20 25 5 15 12 353 348 341 334 333 331 328 329 332 334 336 338 338 336 335 336 336 334 332 329 329 330 329 328 328 327 327 326 326 327 327 328 329 328 327 326 324 324 324 323 322 322 322 321 321 319 318
6 352 30 54 6 360 15 304 290 278 239 286 308 310 313 314 360 345 317 315 342 339 335 334 322 313 308 304 302 306 309 311 313 326 3 6 349 352 352 341 335 330 328 331 332 331 333 335 337 336 335 334 334 334 335 335 332 330 329 329 327 326 326 326 326 326 326 326 327 328 329 330 329 327 327 326 325 324 324 324 323 322 322 322 321 319
11 341 350 35 19 360 45 270 301 286 216 276 315 312 318 330 326 315 315 326 330 324 324 325 313 306 306 309 309 309 310 314 316 328 353 346 334 333 333 329 329 329 331 334 336 338 338 336 335 333 331 332 332 332 334 334 331 329 328 327 325 325 326 326 327 327 327 327 328 330 330 330 330 329 328 328 328 326 325 325 325 324 324 323 322 321
128 311 321 315 286 333 358 353 320 285 237 348 338 330 2 353 320 311 316 317 315 315 318 316 311 317 325 321 315 312 311 314 319 329 332 326 324 326 326 327 330 330 333 335 337 339 338 333 331 329 327 329 331 332 334 334 330 329 327 324 324 326 327 327 328 328 328 329 329 330 330 330 330 331 331 331 331 328 326 326 327 327 326 326 324 322
146 139 281 273 231 51 356 315 265 264 285 7 343 310 311 324 310 310 306 302 306 313 314 311 313 325 337 326 317 314 311 313 318 320 319 321 325 326 324 327 329 329 331 333 333 335 335 330 327 326 325 328 332 333 335 334 331 327 324 323 326 329 328 328 329 329 329 329 329 329 330 331 331 332 332 333 332 330 328 328 328 328 328 328 326 322
207 198 204 226 212 205 248 258 265 282 298 314 218 241 262 283 290 291 284 288 301 307 308 312 311 317 334 330 316 309 308 312 313 311 314 317 319 322 322 323 325 326 327 329 330 332 332 328 326 326 326 329 333 334 334 335 331 325 323 326 329 329 329 329 330 330 330 329 329 330 331 331 332 333 333 333 333 332 330 329 329 328 328 328 327 323
236 241 182 187 299 279 247 254 276 287 292 288 230 214 231 258 271 274 272 282 295 299 301 310 308 314 331 326 311 305 306 307 303 302 309 313 314 317 317 317 322 327 328 329 329 329 329 328 327 328 327 328 332 333 332 333 331 325 324 328 330 330 330 331 331 330 329 329 329 330 331 331 331 333 333 333 334 334 332 331 329 327 327 327 326 324
284 275 127 83 324 318 290 286 289 281 294 304 291 229 259 272 255 254 273 277 289 304 310 321 327 323 316 306 304 303 300 298 301 303 310 316 312 313 316 318 323 327 327 327 326 326 328 329 328 328 327 325 328 331 331 331 331 329 328 330 332 332 332 332 331 330 329 329 329 330 331 331 330 331 332 333 335 335 334 334 332 328 327 327 325 324
289 312 76 14 301 279 276 289 297 293 290 292 264 192 304 306 285 273 283 288 304 314 318 336 333 317 304 300 303 299 295 299 307 308 312 315 311 311 316 320 322 324 324 325 326 326 327 327 326 326 324 323 326 329 330 330 331 332 333 334 335 335 334 333 332 329 327 328 329 329 331 331 330 330 331 332 334 335 335 335 333 330 327 326 325 324
275 306 274 277 276 266 278 302 325 324 298 269 214 300 323 322 303 300 303 304 313 316 312 319 315 300 296 303 301 294 294 299 305 312 312 310 309 311 315 319 321 323 324 325 326 326 324 323 324 324 323 323 327 329 329 330 333 336 337 337 337 337 335 332 331 329 328 329 330 330 331 331 330 331 331 331 332 333 334 334 332 328 326 326 328 327
291 246 247 314 313 298 305 324 342 325 299 289 312 322 331 347 325 320 319 312 314 312 300 305 304 296 298 302 292 276 283 289 302 314 311 306 307 310 314 321 324 324 324 325 325 324 322 323 324 324 324 325 329 330 331 332 336 339 340 339 338 337 335 333 331 329 329 330 330 331 332 331 330 331 331 331 332 332 332 333 334 330 327 327 330 330
182 196 204 300 287 284 297 314 341 300 290 301 315 321 336 22 344 326 325 319 314 309 304 305 303 301 308 309 292 271 268 285 306 315 312 308 310 312 318 324 325 323 323 324 323 322 322 324 325 325 325 328 331 332 332 333 336 339 339 339 339 337 335 334 332 328 328 329 329 330 331 329 329 330 331 332 332 332 332 333 334 335 334 333 334 335
Height
813 813 814 812 808 808 810 813 814 815 818 817 816 816 816 817 814 811 813 820 824 817 812 816 816 814 815 819 823 822 819 817 815 819 823 824 825 826 827 829 831 834 836 837 838 839 841 842 844 845 846 846 847 848 848 849 849 850 851 850 850 849 848 847 846 844 843 842 840 839 838 836 835 834 833 832 831 829 828 827 826 825 824 823 822 821
816 814 811 810 812 815 817 820 821 821 821 818 816 816 817 819 814 812 816 821 824 816 814 822 818 816 825 829 830 827 821 820 820 822 824 825 827 829 830 831 833 836 838 839 840 842 843 844 845 846 847 848 848 850 850 851 851 851 851 850 850 849 848 847 845 844 843 842 841 839 837 836 834 833 831 830 828 827 826 825 824 823 822 821 819 819
816 812 810 816 823 823 821 823 821 817 818 817 818 818 816 818 816 814 821 823 822 816 813 821 817 817 831 834 832 832 828 828 828 826 828 828 829 831 832 834 835 837 839 842 843 844 845 846 848 848 849 850 850 851 852 852 852 851 851 850 850 849 848 847 845 844 843 842 841 840 838 835 833 831 829 828 826 825 824 823 822 821 820 818 817 816
814 810 816 824 825 820 817 820 819 816 817 816 818 818 813 818 817 810 816 821 821 819 815 818 818 822 835 836 834 836 834 834 834 832 833 833 833 836 837 838 838 840 842 845 846 847 848 848 849 850 850 852 852 852 853 852 852 852 851 851 850 849 848 847 845 844 843 842 841 839 837 835 832 829 827 825 824 823 822 820 819 818 817 816 814 813
812 814 826 826 820 818 815 816 817 815 816 816 816 815 811 813 815 812 817 820 818 821 822 818 814 823 839 841 841 841 838 838 837 836 837 839 840 840 841 842 843 844 845 847 849 849 850 850 851 852 852 852 853 853 853 853 853 853 852 851 850 849 847 846 845 844 842 840 838 836 833 831 829 827 825 823 821 821 820 818 817 815 814 813 811 810
813 821 828 821 817 820 816 815 816 815 817 816 812 812 811 811 814 817 820 818 813 813 819 815 807 821 844 848 847 848 845 844 843 842 843 844 844 843 844 846 846 848 848 849 851 851 852 853 853 853 853 853 854 854 855 854 854 853 852 851 850 848 847 846 845 843 841 840 837 835 832 829 827 825 824 823 821 820 818 816 814 813 811 810 808 807
817 824 825 819 818 819 817 816 817 818 818 814 813 817 818 817 818 819 818 817 811 808 817 818 808 818 842 850 851 854 851 850 849 847 849 849 848 848 849 850 850 851 852 852 853 854 854 854 854 854 855 855 855 856 856 855 854 853 852 851 849 848 847 845 844 843 841 839 837 835 833 831 829 826 824 823 822 819 817 814 812 810 808 807 805 803
819 820 820 820 818 817 817 813 816 821 816 812 819 823 820 820 820 819 820 818 817 815 817 823 814 811 833 850 852 854 854 854 854 852 853 853 852 852 852 853 854 854 854 855 855 856 856 855 855 856 857 857 857 857 856 854 853 852 851 850 849 848 847 845 844 843 841 839 836 834 833 831 830 828 825 823 821 818 815 813 810 808 806 804 803 801
820 817 816 819 818 818 815 814 820 823 814 814 825 827 824 824 823 823 823 820 826 824 811 817 819 810 830 851 848 851 856 856 858 857 856 856 855 855 855 856 857 857 857 856 857 857 857 857 857 858 859 858 858 857 855 855 854 853 852 850 849 848 847 845 844 842 840 838 836 834 832 830 829 827 824 822 819 816 814 811 809 806 804 802 801 799
820 821 821 820 817 818 816 819 827 823 816 821 829 830 828 830 829 827 827 822 828 825 804 806 813 806 827 850 845 849 857 857 859 859 858 859 857 858 859 859 859 859 859 858 858 859 859 859 859 859 859 858 857 857 855 855 854 853 852 851 850 849 847 845 843 841 839 837 835 834 832 830 828 825 823 820 818 815 813 810 808 805 803 801 799 798
824 827 827 823 821 822 821 825 831 827 824 827 828 823 820 827 830 830 833 829 824 816 801 807 816 807 818 839 842 846 851 853 858 860 860 860 860 860 860 861 861 860 860 860 860 860 860 860 860 859 858 858 857 857 856 855 855 854 853 852 851 849 847 844 843 841 839 837 836 834 832 830 828 825 822 819 816 814 812 809 807 805 802 800 798 797
821 823 824 825 827 829 824 823 829 832 831 826 821 817 813 817 822 824 828 826 817 806 801 815 821 809 811 830 843 848 849 852 857 860 861 861 861 862 862 861 862 860 860 861 860 861 860 860 860 859 859 859 859 858 858 857 857 856 854 852 850 848 846 845 843 842 839 838 836 834 832 830 827 825 822 819 815 813 810 808 805 803 801 799 797 795
813 819 826 826 827 830 823 817 821 826 827 823 819 818 815 814 815 811 812 818 814 802 808 822 818 811 824 839 848 852 851 853 857 859 861 862 862 863 862 862 861 861 861 861 861 861 861 861 861 861 861 861 861 860 860 859 857 856 854 852 850 848 847 846 844 842 840 838 836 834 832 829 826 824 821 818 815 812 810 807 804 802 799 796 794 793
814 818 825 821 822 829 825 816 814 816 820 820 817 816 816 818 817 809 811 821 815 803 815 826 815 816 835 847 852 855 855 855 858 860 861 862 863 862 862 862 861 861 861 861 862 861 862 863 863 863 864 863 863 862 861 860 858 856 855 853 851 850 849 847 845 843 840 838 836 834 831 828 825 822 820 817 814 812 810 807 804 802 799 796 794 792
824 816 816 815 819 826 825 821 821 820 820 823 825 823 820 818 817 813 811 811 808 807 818 820 814 823 839 849 856 858 858 859 860 861 862 861 862 862 862 862 861 861 861 861 862 863 863 864 865 865 865 864 864 863 861 860 859 857 856 854 853 851 849 847 844 841 839 837 835 832 829 826 823 820 818 816 814 812 809 807 804 801 799 797 794 792
833 820 817 824 829 828 825 827 832 824 818 827 833 826 820 819 816 817 822 824 825 823 821 822 831 844 851 854 859 859 859 861 861 861 863 862 862 862 861 861 861 861 862 863 863 864 865 865 866 866 865 865 864 863 862 861 860 859 857 856 854 851 848 845 843 840 838 836 833 830 827 824 822 820 818 816 814 811 809 806 804 801 799 796 794 791
835 822 817 825 831 830 830 831 833 825 817 824 829 819 822 829 822 818 828 840 842 831 821 830 849 859 858 854 857 860 859 860 861 861 861 862 862 862 862 862 862 863 864 864 865 865 866 866 866 866 866 866 865 865 865 863 862 860 857 855 852 849 846 843 842 839 837 834 831 828 826 824 822 820 817 815 813 810 808 805 803 800 797 795 792 789
842 828 817 823 824 827 837 835 830 832 827 821 822 821 826 832 827 825 828 830 834 830 820 830 850 857 853 851 856 860 860 860 861 861 861 862 862 863 863 863 864 865 865 865 866 866 866 867 867 867 868 868 868 867 865 863 861 859 856 854 851 848 845 843 841 839 835 832 830 827 825 823 821 819 817 814 811 808 806 803 801 798 795 792 789 786
849 834 821 828 829 826 836 833 823 830 835 827 825 827 827 825 822 826 830 824 827 830 823 831 853 854 843 847 858 860 861 862 863 862 863 864 864 865 865 865 866 866 866 866 866 866 867 868 869 870 869 869 868 866 864 862 859 857 855 853 851 848 846 843 840 838 834 832 829 826 824 822 820 818 815 812 809 807 804 801 798 796 792 789 786 784
850 841 827 829 833 828 827 824 816 820 830 831 831 831 830 830 826 826 831 828 825 828 827 831 842 843 839 847 856 859 862 864 864 865 866 866 867 867 867 867 867 866 867 867 867 868 869 870 870 870 869 868 866 865 863 861 858 856 855 852 850 848 845 843 840 837 834 831 828 826 824 821 819 816 813 810 807 805 802 799 797 794 790 787 784 782
849 847 834 825 830 828 819 818 819 820 825 827 827 827 827 829 830 829 832 835 830 826 830 831 826 837 851 853 854 860 864 864 866 867 867 868 870 869 868 869 867 867 867 867 869 870 871 871 870 869 868 867 865 864 862 860 858 856 854 852 850 847 845 842 839 836 833 830 827 825 822 820 817 814 811 808 806 803 801 798 796 792 788 785 782 780
849 850 845 835 833 826 817 823 831 829 828 827 824 825 827 827 829 830 832 841 841 831 835 835 826 840 859 856 856 863 863 864 868 869 869 870 870 869 869 869 868 869 869 868 870 871 870 870 869 868 867 866 864 863 861 860 858 856 854 852 850 847 845 842 838 835 832 829 827 824 821 819 816 814 810 807 805 802 799 797 793 790 787 783 780 777
855 856 854 846 838 828 825 835 841 837 833 833 831 831 834 831 831 831 829 835 841 838 842 842 834 846 861 858 859 863 863 867 869 869 871 871 870 870 869 869 869 869 869 870 871 871 870 870 869 867 866 865 863 862 861 859 857 855 853 851 849 847 844 841 837 834 831 828 826 823 820 818 815 812 809 806 803 800 797 794 791 788 785 781 778 775
857 856 854 846 836 829 828 834 840 839 834 831 833 836 838 837 836 837 835 838 838 833 836 837 835 848 862 860 861 864 865 868 868 870 872 871 871 870 869 870 870 869 870 871 871 871 870 869 868 867 866 864 864 862 861 860 857 855 853 851 848 846 842 839 836 832 830 827 824 822 819 816 813 810 807 804 801 798 795 792 789 786 783 779 776 773
854 852 851 848 842 833 828 828 831 833 832 830 833 839 842 842 843 844 845 847 841 832 833 833 835 849 862 863 863 865 866 868 869 870 871 871 871 870 869 871 870 869 871 871 871 871 869 869 868 868 867 866 865 864 862 860 857 855 852 849 846 843 840 838 834 831 828 825 823 820 817 814 811 808 805 802 799 796 794 791 787 784 781 778 774 771
857 856 854 853 853 850 842 838 836 837 840 838 837 842 844 844 845 844 841 839 837 837 839 837 840 853 863 866 866 867 869 870 871 870 871 872 871 869 870 870 869 870 872 871 872 871 870 871 870 869 869 867 866 864 861 859 856 853 850 847 845 842 839 836 833 830 827 825 822 819 816 814 811 808 805 802 798 795 792 789 785 782 779 776 772 768
861 861 858 854 855 854 848 843 843 845 848 845 841 844 849 852 852 847 839 837 839 842 841 843 850 856 861 867 870 870 871 872 872 872 872 871 870 869 869 869 870 872 873 873 873 872 871 871 870 870 869 867 866 863 860 857 854 851 848 846 844 842 839 836 833 830 827 824 822 819 816 814 811 808 804 800 797 794 790 787 783 780 777 774 770 766
861 859 863 862 855 852 852 850 849 852 854 854 854 855 856 855 850 844 844 847 849 845 843 853 862 858 858 867 871 871 873 873 872 873 872 870 869 869 869 870 872 873 874 873 872 871 871 871 870 870 869 866 864 861 858 856 853 851 848 846 844 841 838 835 832 830 827 825 822 819 816 813 810 806 803 799 796 792 788 785 781 778 775 771 768 764
863 861 869 870 858 852 855 855 853 854 857 861 865 864 862 858 851 849 855 858 857 852 851 861 866 861 863 870 871 871 873 873 873 873 872 870 870 870 870 871 873 873 874 873 871 871 871 871 870 869 866 864 862 859 857 854 852 850 848 845 843 840 837 835 832 829 827 824 821 818 815 811 808 804 801 797 794 790 787 783 779 776 772 769 765 761
867 864 871 875 865 853 852 855 855 854 856 863 869 868 865 863 859 859 860 861 861 859 861 868 867 863 868 873 871 870 872 872 873 872 871 870 870 870 871 872 874 874 874 872 871 871 871 870 869 867 864 863 860 857 855 852 850 848 846 845 842 839 837 834 831 829 826 823 820 817 813 810 807 803 799 796 792 788 784 781 777 773 768 765 761 757
866 867 873 875 867 854 849 853 856 855 856 861 868 870 867 864 862 864 863 864 864 862 865 869 865 864 869 871 870 870 871 872 873 872 871 871 870 871 871 873 875 875 874 872 871 871 871 870 868 866 864 861 858 855 852 850 850 848 846 844 842 839 837 834 831 828 825 822 818 815 812 808 804 801 797 793 790 786 782 778 774 769 765 761 757 753
871 873 874 873 869 859 850 850 855 860 858 858 867 876 873 868 868 870 869 868 868 867 867 866 864 867 870 870 870 872 872 873 874 872 871 871 871 871 872 874 875 875 874 872 871 872 871 869 867 865 862 859 856 854 852 851 850 848 846 844 841 839 836 833 830 827 823 821 817 813 810 806 802 798 794 791 787 783 779 775 770 766 762 757 753 749
881 877 875 877 874 860 852 855 859 859 854 857 873 883 879 874 876 876 872 870 872 873 872 869 869 872 873 872 874 874 873 874 874 872 871 872 872 872 873 875 875 874 874 873 872 872 870 869 867 864 861 858 856 854 853 852 850 848 846 843 840 838 835 832 829 826 822 819 815 812 808 804 800 796 791 788 784 780 776 772 767 764 759 755 750 746
886 881 880 885 878 861 857 862 857 850 852 865 879 884 879 876 878 878 874 872 874 875 875 874 874 875 875 876 877 875 875 875 874 872 873 874 874 874 874 874 874 874 875 874 873 872 870 868 866 864 861 858 856 854 853 851 850 847 845 842 839 836 834 831 827 824 821 817 813 810 806 802 798 793 788 785 781 777 773 769 764 760 756 752 748 743
882 880 882 887 882 870 867 866 857 852 861 875 879 880 879 877 877 878 875 875 879 880 879 879 878 877 877 877 876 876 875 875 873 872 873 874 875 875 874 873 874 875 875 874 872 871 869 867 865 862 860 857 855 854 852 850 849 846 843 841 838 835 832 829 826 822 819 814 810 807 803 799 794 790 785 782 778 774 769 765 761 757 753 749 745 740
881 882 883 884 881 876 874 873 869 867 872 879 879 879 881 879 878 878 875 876 883 884 882 883 881 878 878 877 876 876 875 874 873 872 873 874 874 874 874 873 874 875 874 872 871 869 868 866 864 861 859 857 855 853 852 850 847 845 842 839 837 833 830 827 823 820 816 812 808 804 800 796 791 786 783 779 775 771 766 762 758 754 749 745 740 736
881 882 882 880 879 879 878 876 873 868 870 880 886 886 887 887 885 886 882 879 883 885 884 884 882 879 879 877 876 877 876 874 872 870 873 874 873 874 874 874 875 874 873 872 870 869 867 865 863 861 859 857 855 853 851 849 845 843 840 837 834 831 827 824 821 817 813 809 806 802 798 795 790 785 781 777 773 768 764 760 756 751 747 743 737 733
883 882 883 881 879 879 879 878 876 868 867 883 894 891 888 888 887 889 887 882 883 886 884 883 883 881 879 878 877 877 876 874 871 870 872 874 874 874 875 874 874 873 871 870 869 868 866 864 863 861 859 856 854 851 849 846 843 840 837 834 831 828 825 822 818 815 812 808 805 801 797 794 790 785 780 776 772 767 763 758 754 749 746 741 736 730
883 885 886 882 880 884 886 885 883 876 876 891 897 891 888 887 886 888 886 880 882 886 884 883 884 882 880 879 878 878 878 876 872 870 872 874 874 875 875 874 873 872 871 870 869 867 865 864 862 859 857 854 851 849 847 844 841 839 835 833 830 826 823 821 817 814 811 807 804 800 797 793 788 784 780 775 771 766 762 757 752 748 744 740 734 728
881 883 885 883 885 891 894 889 884 881 886 895 896 890 888 886 885 889 884 877 880 885 883 883 885 883 881 880 878 879 880 878 874 871 873 875 875 874 874 873 872 872 870 869 868 866 864 862 860 857 854 852 850 848 846 843 841 838 835 832 829 826 823 820 817 813 810 806 802 798 795 791 786 782 778 774 769 764 760 756 751 746 741 737 732 726
890 891 895 893 891 895 898 894 887 884 889 896 895 890 887 884 884 888 885 881 883 884 882 883 884 882 880 879 878 879 879 878 876 875 874 875 875 874 874 873 872 871 870 868 866 865 862 860 858 855 853 852 850 847 845 842 840 837 834 831 829 826 823 819 815 812 807 803 800 795 792 788 784 780 776 772 767 763 758 754 750 744 740 735 729 724
901 900 901 900 897 901 904 900 892 886 890 896 894 887 886 887 888 887 885 884 885 883 882 883 883 881 879 878 879 879 878 878 878 877 876 876 875 874 873 872 871 870 868 867 865 862 860 858 856 854 853 851 849 847 844 842 839 836 833 830 827 824 821 818 813 809 805 801 797 793 789 785 782 778 774 770 766 761 756 752 748 743 738 733 727 721
906 903 902 903 904 905 905 903 899 892 889 893 892 887 888 891 891 889 887 886 885 884 884 883 882 880 880 879 880 880 879 879 878 877 877 876 874 874 872 871 869 868 866 865 863 861 860 858 856 854 852 850 848 845 843 840 837 834 832 829 826 823 819 816 812 807 803 799 794 791 787 783 779 775 771 768 764 760 754 749 745 740 736 731 726 719
909 907 905 905 906 906 905 902 897 891 888 891 893 891 891 891 891 890 889 887 885 884 885 884 882 881 881 881 881 880 879 878 877 877 877 875 874 873 871 869 868 867 865 863 862 860 859 857 855 854 851 849 846 844 841 839 836 833 830 827 824 821 817 813 810 805 801 797 793 789 785 781 777 773 769 766 762 758 753 747 743 738 734 729 725 719
906 906 904 903 903 904 903 896 889 886 888 892 892 891 891 891 890 890 889 887 886 885 885 885 883 882 882 882 882 881 879 877 877 877 876 874 873 872 870 869 868 865 864 863 861 859 858 856 854 852 849 847 845 842 840 838 835 831 828 825 822 819 815 811 807 803 799 795 791 787 782 778 775 771 768 765 761 757 752 746 741 737 732 728 723 718
905 904 904 903 901 899 896 890 888 889 888 889 890 890 891 890 889 889 888 886 886 885 884 884 883 882 883 883 882 881 878 877 877 876 875 874 872 871 870 868 866 864 863 861 859 858 857 854 852 850 847 845 843 841 839 837 834 831 827 824 821 817 814 810 805 801 797 793 789 785 781 777 772 769 765 762 759 756 752 747 741 736 732 727 722 717
906 903 903 904 903 901 894 887 888 889 888 888 889 889 889 889 888 888 887 885 885 884 883 883 883 883 883 882 881 880 877 876 876 875 874 873 871 870 869 866 865 863 861 859 858 856 854 853 850 848 846 843 841 839 837 834 832 830 826 822 819 815 812 808 804 799 795 791 787 784 780 776 771 767 763 760 756 753 750 746 741 736 732 727 722 717
904 901 903 905 906 903 894 885 886 888 887 887 887 887 889 888 886 887 886 885 884 884 883 883 883 882 881 880 879 878 876 875 875 874 873 872 870 868 867 865 863 861 859 858 856 854 852 851 849 846 844 842 839 837 835 832 830 827 824 820 817 813 809 806 802 798 794 790 786 783 779 775 771 767 762 758 755 752 748 744 740 735 731 728 723 719
905 902 904 906 904 900 892 886 886 887 885 885 886 887 887 886 886 886 885 884 884 883 882 882 881 880 880 878 877 877 876 875 874 873 872 870 868 867 865 863 861 859 857 856 854 852 851 849 847 845 842 839 837 835 832 830 827 824 821 818 815 812 808 804 800 797 792 788 785 781 778 774 770 767 762 757 754 751 748 745 741 736 731 727 724 720
906 904 904 905 904 899 892 889 890 891 888 885 886 886 885 885 886 886 884 883 883 882 881 881 879 879 878 877 876 876 875 873 873 872 870 868 866 865 863 861 859 857 856 854 852 851 849 847 845 843 840 837 835 832 829 827 824 822 819 816 813 810 807 803 799 795 791 787 784 780 777 773 769 766 762 757 753 748 744 742 741 738 733 727 723 719
904 903 903 904 904 898 891 890 893 895 891 887 886 886 886 886 886 885 884 883 882 881 881 880 879 877 876 876 875 874 873 872 871 870 868 866 864 863 861 859 858 856 854 852 850 848 847 845 842 840 837 834 832 829 827 824 822 819 817 815 812 809 806 802 798 794 789 786 783 779 776 773 768 764 761 757 753 748 742 737 734 733 732 729 723 717